Time,TemperatureF,DewpointF,PressureIn,WindDirection,WindDirectionDegrees,WindSpeedMPH,WindSpeedGustMPH,Humidity,HourlyPrecipIn,Conditions,Clouds,dailyrainin,SoftwareType,DateUTC
2013-01-20 00:03:00,38.3,34.2,30.20,WNW,283,0.0,0.0,85,0.00,,,0.00,Wunderground v.1.12,2013-01-20 08:03:00,
2013-01-20 00:09:00,38.3,34.2,30.20,WNW,283,0.0,0.0,85,0.00,,,0.00,Wunderground v.1.12,2013-01-20 08:09:00,
2013-01-20 00:14:00,38.0,33.9,30.20,WNW,283,0.0,0.0,85,0.00,,,0.00,Wunderground v.1.12,2013-01-20 08:14:00,
2013-01-20 00:20:00,37.9,33.8,30.20,WNW,283,0.0,0.0,85,0.00,,,0.00,Wunderground v.1.12,2013-01-20 08:20:00,
2013-01-20 00:26:00,37.6,33.8,30.20,WNW,283,0.0,0.0,86,0.00,,,0.00,Wunderground v.1.12,2013-01-20 08:26:00,
2013-01-20 00:31:00,37.5,33.7,30.20,WNW,283,0.0,0.0,86,0.00,,,0.00,Wunderground v.1.12,2013-01-20 08:31:00,
2013-01-20 00:37:00,37.2,33.4,30.20,WNW,283,0.0,0.0,86,0.00,,,0.00,Wunderground v.1.12,2013-01-20 08:37:00,
2013-01-20 00:42:00,37.2,33.4,30.20,WNW,283,0.0,0.0,86,0.00,,,0.00,Wunderground v.1.12,2013-01-20 08:42:00,
2013-01-20 00:48:00,37.0,32.9,30.20,WNW,283,0.0,0.0,85,0.00,,,0.00,Wunderground v.1.12,2013-01-20 08:48:00,
2013-01-20 00:54:00,36.9,32.8,30.20,WNW,283,0.0,0.0,85,0.00,,,0.00,Wunderground v.1.12,2013-01-20 08:54:00,
2013-01-20 01:00:00,36.9,32.8,30.20,WNW,283,0.0,0.0,85,0.00,,,0.00,Wunderground v.1.12,2013-01-20 09:00:00,
2013-01-20 01:05:00,36.8,32.7,30.20,WNW,283,0.0,0.0,85,0.00,,,0.00,Wunderground v.1.12,2013-01-20 09:05:00,
2013-01-20 01:11:00,36.6,32.5,30.20,WNW,283,0.0,0.0,85,0.00,,,0.00,Wunderground v.1.12,2013-01-20 09:11:00,
2013-01-20 01:16:00,36.5,32.7,30.20,WNW,283,0.0,0.0,86,0.00,,,0.00,Wunderground v.1.12,2013-01-20 09:16:00,
2013-01-20 01:21:00,36.3,32.5,30.20,WNW,283,0.0,0.0,86,0.00,,,0.00,Wunderground v.1.12,2013-01-20 09:21:00,
2013-01-20 01:27:00,36.0,32.2,30.20,WNW,283,0.0,0.0,86,0.00,,,0.00,Wunderground v.1.12,2013-01-20 09:27:00,
2013-01-20 01:32:00,36.0,32.2,30.20,WNW,283,0.0,0.0,86,0.00,,,0.00,Wunderground v.1.12,2013-01-20 09:32:00,
2013-01-20 01:37:00,35.9,32.1,30.20,WNW,283,0.0,1.0,86,0.00,,,0.00,Wunderground v.1.12,2013-01-20 09:37:00,
2013-01-20 01:43:00,35.9,32.1,30.20,WNW,283,0.0,0.0,86,0.00,,,0.00,Wunderground v.1.12,2013-01-20 09:43:00,
2013-01-20 01:49:00,35.9,32.1,30.20,WNW,283,0.0,0.0,86,0.00,,,0.00,Wunderground v.1.12,2013-01-20 09:49:00,
2013-01-20 01:55:00,35.9,32.1,30.20,WNW,283,0.0,0.0,86,0.00,,,0.00,Wunderground v.1.12,2013-01-20 09:55:00,
2013-01-20 02:00:00,36.0,32.2,30.20,WNW,283,0.0,0.0,86,0.00,,,0.00,Wunderground v.1.12,2013-01-20 10:00:00,
2013-01-20 02:05:00,36.0,31.9,30.20,WNW,283,0.0,0.0,85,0.00,,,0.00,Wunderground v.1.12,2013-01-20 10:05:00,
2013-01-20 02:11:00,36.0,31.9,30.20,WNW,283,0.0,0.0,85,0.00,,,0.00,Wunderground v.1.12,2013-01-20 10:11:00,
2013-01-20 02:16:00,36.2,32.1,30.20,WNW,283,0.0,0.0,85,0.00,,,0.00,Wunderground v.1.12,2013-01-20 10:16:00,
2013-01-20 02:21:00,36.2,31.8,30.20,WNW,283,0.0,0.0,84,0.00,,,0.00,Wunderground v.1.12,2013-01-20 10:21:00,
2013-01-20 02:26:00,36.2,31.8,30.20,WNW,283,0.0,0.0,84,0.00,,,0.00,Wunderground v.1.12,2013-01-20 10:26:00,
2013-01-20 02:31:00,36.2,31.8,30.21,WNW,283,0.0,0.0,84,0.00,,,0.00,Wunderground v.1.12,2013-01-20 10:31:00,
2013-01-20 02:36:00,36.2,31.8,30.21,WNW,283,0.0,0.0,84,0.00,,,0.00,Wunderground v.1.12,2013-01-20 10:36:00,
2013-01-20 02:41:00,36.0,31.6,30.21,WNW,283,0.0,0.0,84,0.00,,,0.00,Wunderground v.1.12,2013-01-20 10:41:00,
2013-01-20 02:46:00,35.9,31.5,30.21,WNW,283,0.0,0.0,84,0.00,,,0.00,Wunderground v.1.12,2013-01-20 10:46:00,
2013-01-20 02:51:00,35.9,31.5,30.21,WNW,283,0.0,0.0,84,0.00,,,0.00,Wunderground v.1.12,2013-01-20 10:51:00,
2013-01-20 02:56:00,35.8,31.4,30.21,WNW,283,0.0,0.0,84,0.00,,,0.00,Wunderground v.1.12,2013-01-20 10:56:00,
2013-01-20 03:02:00,35.6,31.2,30.20,WNW,283,0.0,0.0,84,0.00,,,0.00,Wunderground v.1.12,2013-01-20 11:02:00,
2013-01-20 03:07:00,35.5,31.1,30.20,WNW,283,0.0,0.0,84,0.00,,,0.00,Wunderground v.1.12,2013-01-20 11:07:00,
2013-01-20 03:12:00,35.3,30.9,30.20,WNW,283,0.0,0.0,84,0.00,,,0.00,Wunderground v.1.12,2013-01-20 11:12:00,
2013-01-20 03:17:00,35.2,30.9,30.20,WNW,283,0.0,0.0,84,0.00,,,0.00,Wunderground v.1.12,2013-01-20 11:17:00,
2013-01-20 03:22:00,35.2,30.9,30.20,WNW,283,0.0,0.0,84,0.00,,,0.00,Wunderground v.1.12,2013-01-20 11:22:00,
2013-01-20 03:27:00,35.2,30.9,30.20,WNW,283,0.0,0.0,84,0.00,,,0.00,Wunderground v.1.12,2013-01-20 11:27:00,
2013-01-20 03:32:00,35.3,30.9,30.20,WNW,283,0.0,0.0,84,0.00,,,0.00,Wunderground v.1.12,2013-01-20 11:32:00,
2013-01-20 03:37:00,35.3,30.9,30.20,WNW,283,0.0,0.0,84,0.00,,,0.00,Wunderground v.1.12,2013-01-20 11:37:00,
2013-01-20 03:42:00,35.5,31.1,30.20,WNW,283,0.0,0.0,84,0.00,,,0.00,Wunderground v.1.12,2013-01-20 11:42:00,
2013-01-20 03:47:00,35.5,31.1,30.20,WNW,283,0.0,0.0,84,0.00,,,0.00,Wunderground v.1.12,2013-01-20 11:47:00,
2013-01-20 03:53:00,35.5,30.8,30.20,WNW,283,0.0,0.0,83,0.00,,,0.00,Wunderground v.1.12,2013-01-20 11:53:00,
2013-01-20 03:58:00,35.5,30.8,30.20,WNW,283,0.0,0.0,83,0.00,,,0.00,Wunderground v.1.12,2013-01-20 11:58:00,
2013-01-20 04:03:00,35.3,30.7,30.20,WNW,283,0.0,0.0,83,0.00,,,0.00,Wunderground v.1.12,2013-01-20 12:03:00,
2013-01-20 04:08:00,35.3,30.7,30.20,WNW,283,0.0,0.0,83,0.00,,,0.00,Wunderground v.1.12,2013-01-20 12:08:00,
2013-01-20 04:13:00,35.2,30.6,30.20,WNW,283,0.0,0.0,83,0.00,,,0.00,Wunderground v.1.12,2013-01-20 12:13:00,
2013-01-20 04:18:00,35.0,30.4,30.20,WNW,283,0.0,0.0,83,0.00,,,0.00,Wunderground v.1.12,2013-01-20 12:18:00,
2013-01-20 04:23:00,34.9,30.3,30.20,WNW,283,0.0,0.0,83,0.00,,,0.00,Wunderground v.1.12,2013-01-20 12:23:00,
2013-01-20 04:28:00,34.9,30.3,30.20,WNW,283,0.0,0.0,83,0.00,,,0.00,Wunderground v.1.12,2013-01-20 12:28:00,
2013-01-20 04:33:00,34.9,30.3,30.20,WNW,283,0.0,0.0,83,0.00,,,0.00,Wunderground v.1.12,2013-01-20 12:33:00,
2013-01-20 04:38:00,34.9,30.3,30.20,WNW,283,0.0,0.0,83,0.00,,,0.00,Wunderground v.1.12,2013-01-20 12:38:00,
2013-01-20 04:43:00,34.9,30.3,30.20,WNW,283,0.0,0.0,83,0.00,,,0.00,Wunderground v.1.12,2013-01-20 12:43:00,
2013-01-20 04:48:00,34.9,30.3,30.19,WNW,283,0.0,0.0,83,0.00,,,0.00,Wunderground v.1.12,2013-01-20 12:48:00,
2013-01-20 04:53:00,34.9,30.3,30.19,WNW,283,0.0,0.0,83,0.00,,,0.00,Wunderground v.1.12,2013-01-20 12:53:00,
2013-01-20 04:58:00,34.9,30.3,30.19,WNW,283,0.0,0.0,83,0.00,,,0.00,Wunderground v.1.12,2013-01-20 12:58:00,
2013-01-20 05:03:00,34.9,30.3,30.19,WNW,283,0.0,0.0,83,0.00,,,0.00,Wunderground v.1.12,2013-01-20 13:03:00,
2013-01-20 05:08:00,34.9,30.0,30.19,WNW,283,0.0,0.0,82,0.00,,,0.00,Wunderground v.1.12,2013-01-20 13:08:00,
2013-01-20 05:14:00,34.7,29.8,30.19,WNW,283,0.0,0.0,82,0.00,,,0.00,Wunderground v.1.12,2013-01-20 13:14:00,
2013-01-20 05:19:00,34.7,30.1,30.19,WNW,283,0.0,0.0,83,0.00,,,0.00,Wunderground v.1.12,2013-01-20 13:19:00,
2013-01-20 05:24:00,34.7,30.1,30.19,WNW,283,0.0,0.0,83,0.00,,,0.00,Wunderground v.1.12,2013-01-20 13:24:00,
2013-01-20 05:29:00,34.6,30.0,30.19,WNW,283,0.0,0.0,83,0.00,,,0.00,Wunderground v.1.12,2013-01-20 13:29:00,
2013-01-20 05:34:00,34.6,30.0,30.19,WNW,283,0.0,1.0,83,0.00,,,0.00,Wunderground v.1.12,2013-01-20 13:34:00,
2013-01-20 05:39:00,34.4,29.8,30.19,WNW,283,0.0,0.0,83,0.00,,,0.00,Wunderground v.1.12,2013-01-20 13:39:00,
2013-01-20 05:44:00,34.4,29.8,30.19,WNW,283,0.0,0.0,83,0.00,,,0.00,Wunderground v.1.12,2013-01-20 13:44:00,
2013-01-20 05:49:00,34.3,29.7,30.19,WNW,283,0.0,0.0,83,0.00,,,0.00,Wunderground v.1.12,2013-01-20 13:49:00,
2013-01-20 05:55:00,34.3,29.7,30.19,WNW,283,0.0,0.0,83,0.00,,,0.00,Wunderground v.1.12,2013-01-20 13:55:00,
2013-01-20 06:00:00,34.3,29.7,30.19,WNW,283,0.0,0.0,83,0.00,,,0.00,Wunderground v.1.12,2013-01-20 14:00:00,
2013-01-20 06:05:00,34.1,29.5,30.19,WNW,283,0.0,0.0,83,0.00,,,0.00,Wunderground v.1.12,2013-01-20 14:05:00,
2013-01-20 06:10:00,34.1,29.5,30.19,WNW,283,0.0,0.0,83,0.00,,,0.00,Wunderground v.1.12,2013-01-20 14:10:00,
2013-01-20 06:15:00,34.0,29.4,30.19,WNW,283,0.0,0.0,83,0.00,,,0.00,Wunderground v.1.12,2013-01-20 14:15:00,
2013-01-20 06:20:00,34.0,29.4,30.19,WNW,283,0.0,0.0,83,0.00,,,0.00,Wunderground v.1.12,2013-01-20 14:20:00,
2013-01-20 06:25:00,34.0,29.4,30.19,WNW,283,0.0,0.0,83,0.00,,,0.00,Wunderground v.1.12,2013-01-20 14:25:00,
2013-01-20 06:30:00,34.0,29.4,30.19,WNW,283,0.0,0.0,83,0.00,,,0.00,Wunderground v.1.12,2013-01-20 14:30:00,
2013-01-20 06:35:00,34.0,29.4,30.19,WNW,283,0.0,0.0,83,0.00,,,0.00,Wunderground v.1.12,2013-01-20 14:35:00,
2013-01-20 06:40:00,34.0,29.4,30.19,WNW,283,0.0,0.0,83,0.00,,,0.00,Wunderground v.1.12,2013-01-20 14:40:00,
2013-01-20 06:46:00,34.0,29.4,30.19,WNW,283,0.0,0.0,83,0.00,,,0.00,Wunderground v.1.12,2013-01-20 14:46:00,
2013-01-20 06:51:00,34.0,29.4,30.19,WNW,283,0.0,0.0,83,0.00,,,0.00,Wunderground v.1.12,2013-01-20 14:51:00,
2013-01-20 06:56:00,33.8,29.2,30.19,WNW,283,0.0,0.0,83,0.00,,,0.00,Wunderground v.1.12,2013-01-20 14:56:00,
2013-01-20 07:01:00,33.8,29.2,30.19,WNW,283,0.0,0.0,83,0.00,,,0.00,Wunderground v.1.12,2013-01-20 15:01:00,
2013-01-20 07:06:00,34.0,29.4,30.19,WNW,283,0.0,0.0,83,0.00,,,0.00,Wunderground v.1.12,2013-01-20 15:06:00,
2013-01-20 07:11:00,33.8,29.2,30.19,WNW,283,0.0,0.0,83,0.00,,,0.00,Wunderground v.1.12,2013-01-20 15:11:00,
2013-01-20 07:16:00,33.8,29.2,30.20,WNW,283,0.0,0.0,83,0.00,,,0.00,Wunderground v.1.12,2013-01-20 15:16:00,
2013-01-20 07:22:00,33.7,29.1,30.20,WNW,283,0.0,0.0,83,0.00,,,0.00,Wunderground v.1.12,2013-01-20 15:22:00,
2013-01-20 07:27:00,33.7,29.1,30.20,WNW,283,0.0,0.0,83,0.00,,,0.00,Wunderground v.1.12,2013-01-20 15:27:00,
2013-01-20 07:32:00,33.7,29.1,30.20,WNW,283,0.0,0.0,83,0.00,,,0.00,Wunderground v.1.12,2013-01-20 15:32:00,
2013-01-20 07:37:00,33.5,28.9,30.20,WNW,283,0.0,0.0,83,0.00,,,0.00,Wunderground v.1.12,2013-01-20 15:37:00,
2013-01-20 07:42:00,33.5,28.9,30.20,WNW,283,0.0,0.0,83,0.00,,,0.00,Wunderground v.1.12,2013-01-20 15:42:00,
2013-01-20 07:47:00,33.4,28.8,30.20,WNW,283,0.0,0.0,83,0.00,,,0.00,Wunderground v.1.12,2013-01-20 15:47:00,
2013-01-20 07:52:00,33.5,29.2,30.20,WNW,283,0.0,0.0,84,0.00,,,0.00,Wunderground v.1.12,2013-01-20 15:52:00,
2013-01-20 07:57:00,33.5,28.9,30.20,WNW,283,0.0,0.0,83,0.00,,,0.00,Wunderground v.1.12,2013-01-20 15:57:00,
2013-01-20 08:02:00,33.7,29.1,30.20,WNW,283,0.0,0.0,83,0.00,,,0.00,Wunderground v.1.12,2013-01-20 16:02:00,
2013-01-20 08:07:00,33.8,29.2,30.20,WNW,283,0.0,0.0,83,0.00,,,0.00,Wunderground v.1.12,2013-01-20 16:07:00,
2013-01-20 08:12:00,34.0,29.4,30.20,WNW,283,0.0,0.0,83,0.00,,,0.00,Wunderground v.1.12,2013-01-20 16:12:00,
2013-01-20 08:17:00,34.1,29.5,30.21,WNW,283,0.0,0.0,83,0.00,,,0.00,Wunderground v.1.12,2013-01-20 16:17:00,
2013-01-20 08:22:00,34.4,29.8,30.21,WNW,283,0.0,0.0,83,0.00,,,0.00,Wunderground v.1.12,2013-01-20 16:22:00,
2013-01-20 08:27:00,34.6,29.7,30.21,WNW,283,0.0,0.0,82,0.00,,,0.00,Wunderground v.1.12,2013-01-20 16:27:00,
2013-01-20 08:32:00,35.0,30.1,30.21,WNW,283,0.0,0.0,82,0.00,,,0.00,Wunderground v.1.12,2013-01-20 16:32:00,
2013-01-20 08:38:00,35.3,30.1,30.21,WNW,283,0.0,0.0,81,0.00,,,0.00,Wunderground v.1.12,2013-01-20 16:38:00,
2013-01-20 08:43:00,35.8,30.2,30.21,WNW,283,0.0,0.0,80,0.00,,,0.00,Wunderground v.1.12,2013-01-20 16:43:00,
2013-01-20 08:48:00,36.3,30.4,30.21,WNW,283,0.0,0.0,79,0.00,,,0.00,Wunderground v.1.12,2013-01-20 16:48:00,
2013-01-20 08:53:00,37.0,30.5,30.21,WNW,283,0.0,0.0,77,0.00,,,0.00,Wunderground v.1.12,2013-01-20 16:53:00,
2013-01-20 08:58:00,37.9,31.0,30.21,WNW,283,0.0,0.0,76,0.00,,,0.00,Wunderground v.1.12,2013-01-20 16:58:00,
2013-01-20 09:03:00,38.2,31.3,30.21,WNW,283,0.0,0.0,76,0.00,,,0.00,Wunderground v.1.12,2013-01-20 17:03:00,
2013-01-20 09:08:00,38.8,31.9,30.21,WNW,283,0.0,0.0,76,0.00,,,0.00,Wunderground v.1.12,2013-01-20 17:08:00,
2013-01-20 09:13:00,39.5,32.2,30.21,WNW,283,0.0,0.0,75,0.00,,,0.00,Wunderground v.1.12,2013-01-20 17:13:00,
2013-01-20 09:18:00,40.1,32.1,30.21,WNW,283,0.0,0.0,73,0.00,,,0.00,Wunderground v.1.12,2013-01-20 17:18:00,
2013-01-20 09:23:00,40.5,32.2,30.21,WNW,283,0.0,0.0,72,0.00,,,0.00,Wunderground v.1.12,2013-01-20 17:23:00,
2013-01-20 09:28:00,41.2,32.5,30.21,WNW,283,0.0,0.0,71,0.00,,,0.00,Wunderground v.1.12,2013-01-20 17:28:00,
2013-01-20 09:34:00,41.8,32.7,30.22,WNW,283,0.0,0.0,70,0.00,,,0.00,Wunderground v.1.12,2013-01-20 17:34:00,
2013-01-20 09:39:00,42.2,33.1,30.22,WNW,283,0.0,0.0,70,0.00,,,0.00,Wunderground v.1.12,2013-01-20 17:39:00,
2013-01-20 09:44:00,42.8,33.3,30.22,WNW,283,0.0,0.0,69,0.00,,,0.00,Wunderground v.1.12,2013-01-20 17:44:00,
2013-01-20 09:49:00,43.3,33.8,30.22,WNW,283,0.0,0.0,69,0.00,,,0.00,Wunderground v.1.12,2013-01-20 17:49:00,
2013-01-20 09:54:00,44.1,34.6,30.22,WNW,283,0.0,0.0,69,0.00,,,0.00,Wunderground v.1.12,2013-01-20 17:54:00,
2013-01-20 09:59:00,44.6,34.7,30.22,WNW,283,0.0,0.0,68,0.00,,,0.00,Wunderground v.1.12,2013-01-20 17:59:00,
2013-01-20 10:04:00,45.2,34.9,30.22,WNW,283,0.0,0.0,67,0.00,,,0.00,Wunderground v.1.12,2013-01-20 18:04:00,
2013-01-20 10:09:00,45.5,35.2,30.22,WNW,283,0.0,0.0,67,0.00,,,0.00,Wunderground v.1.12,2013-01-20 18:09:00,
2013-01-20 10:14:00,46.0,35.7,30.22,WNW,283,0.0,0.0,67,0.00,,,0.00,Wunderground v.1.12,2013-01-20 18:14:00,
2013-01-20 10:19:00,46.5,36.1,30.22,WNW,283,0.0,0.0,67,0.00,,,0.00,Wunderground v.1.12,2013-01-20 18:19:00,
2013-01-20 10:24:00,47.1,36.3,30.22,WNW,283,0.0,0.0,66,0.00,,,0.00,Wunderground v.1.12,2013-01-20 18:24:00,
2013-01-20 10:29:00,47.9,37.1,30.22,WNW,283,0.0,0.0,66,0.00,,,0.00,Wunderground v.1.12,2013-01-20 18:29:00,
2013-01-20 10:34:00,48.8,36.8,30.21,WNW,283,0.0,0.0,63,0.00,,,0.00,Wunderground v.1.12,2013-01-20 18:34:00,
2013-01-20 10:39:00,49.5,36.6,30.21,WNW,283,0.0,0.0,61,0.00,,,0.00,Wunderground v.1.12,2013-01-20 18:39:00,
2013-01-20 10:45:00,50.4,37.0,30.20,WNW,283,0.0,0.0,60,0.00,,,0.00,Wunderground v.1.12,2013-01-20 18:45:00,
2013-01-20 10:50:00,51.1,37.7,30.20,WNW,283,0.0,0.0,60,0.00,,,0.00,Wunderground v.1.12,2013-01-20 18:50:00,
2013-01-20 10:55:00,51.9,37.6,30.20,WNW,283,0.0,0.0,58,0.00,,,0.00,Wunderground v.1.12,2013-01-20 18:55:00,
2013-01-20 11:00:00,52.5,38.1,30.20,WNW,283,0.0,0.0,58,0.00,,,0.00,Wunderground v.1.12,2013-01-20 19:00:00,
2013-01-20 11:05:00,52.9,38.1,30.20,WNW,283,0.0,0.0,57,0.00,,,0.00,Wunderground v.1.12,2013-01-20 19:05:00,
2013-01-20 11:11:00,53.5,38.6,30.20,WNW,283,0.0,0.0,57,0.00,,,0.00,Wunderground v.1.12,2013-01-20 19:11:00,
2013-01-20 11:16:00,54.4,38.6,30.19,WNW,283,0.0,0.0,55,0.00,,,0.00,Wunderground v.1.12,2013-01-20 19:16:00,
2013-01-20 11:21:00,55.1,37.8,30.19,WNW,283,0.0,0.0,52,0.00,,,0.00,Wunderground v.1.12,2013-01-20 19:21:00,
2013-01-20 11:26:00,55.9,38.5,30.19,WNW,283,0.0,0.0,52,0.00,,,0.00,Wunderground v.1.12,2013-01-20 19:26:00,
2013-01-20 11:31:00,56.3,36.8,30.18,WNW,283,0.0,0.0,48,0.00,,,0.00,Wunderground v.1.12,2013-01-20 19:31:00,
2013-01-20 11:36:00,56.9,37.4,30.18,WNW,283,0.0,0.0,48,0.00,,,0.00,Wunderground v.1.12,2013-01-20 19:36:00,
2013-01-20 11:41:00,57.3,36.7,30.18,WNW,283,0.0,0.0,46,0.00,,,0.00,Wunderground v.1.12,2013-01-20 19:41:00,
2013-01-20 11:46:00,57.8,37.1,30.17,WNW,283,0.0,0.0,46,0.00,,,0.00,Wunderground v.1.12,2013-01-20 19:46:00,
2013-01-20 11:52:00,58.3,38.1,30.17,WNW,283,0.0,0.0,47,0.00,,,0.00,Wunderground v.1.12,2013-01-20 19:52:00,
2013-01-20 11:57:00,58.7,36.2,30.17,WNW,283,0.0,0.0,43,0.00,,,0.00,Wunderground v.1.12,2013-01-20 19:57:00,
2013-01-20 12:02:00,59.3,37.4,30.17,WNW,283,0.0,0.0,44,0.00,,,0.00,Wunderground v.1.12,2013-01-20 20:02:00,
2013-01-20 12:07:00,59.6,37.6,30.17,WNW,283,0.0,0.0,44,0.00,,,0.00,Wunderground v.1.12,2013-01-20 20:07:00,
2013-01-20 12:12:00,60.1,37.5,30.17,WNW,283,0.0,0.0,43,0.00,,,0.00,Wunderground v.1.12,2013-01-20 20:12:00,
2013-01-20 12:17:00,60.5,38.5,30.16,WNW,283,0.0,0.0,44,0.00,,,0.00,Wunderground v.1.12,2013-01-20 20:17:00,
2013-01-20 12:22:00,61.0,38.3,30.16,WNW,283,0.0,0.0,43,0.00,,,0.00,Wunderground v.1.12,2013-01-20 20:22:00,
2013-01-20 12:27:00,61.3,38.0,30.16,WNW,283,0.0,0.0,42,0.00,,,0.00,Wunderground v.1.12,2013-01-20 20:27:00,
2013-01-20 12:32:00,61.3,36.8,30.14,West,280,0.0,0.0,40,0.00,,,0.00,Wunderground v.1.12,2013-01-20 20:32:00,
2013-01-20 12:38:00,61.6,37.7,30.14,West,280,0.0,0.0,41,0.00,,,0.00,Wunderground v.1.12,2013-01-20 20:38:00,
2013-01-20 12:43:00,62.1,37.5,30.14,West,280,0.0,0.0,40,0.00,,,0.00,Wunderground v.1.12,2013-01-20 20:43:00,
2013-01-20 12:48:00,62.7,39.3,30.14,West,280,0.0,0.0,42,0.00,,,0.00,Wunderground v.1.12,2013-01-20 20:48:00,
2013-01-20 12:53:00,62.7,38.6,30.14,West,280,0.0,0.0,41,0.00,,,0.00,Wunderground v.1.12,2013-01-20 20:53:00,
2013-01-20 12:58:00,63.1,39.0,30.14,West,280,0.0,0.0,41,0.00,,,0.00,Wunderground v.1.12,2013-01-20 20:58:00,
2013-01-20 13:03:00,63.7,38.3,30.13,West,280,0.0,0.0,39,0.00,,,0.00,Wunderground v.1.12,2013-01-20 21:03:00,
2013-01-20 13:08:00,64.3,38.8,30.13,West,280,0.0,0.0,39,0.00,,,0.00,Wunderground v.1.12,2013-01-20 21:08:00,
2013-01-20 13:13:00,64.8,38.6,30.13,West,280,0.0,0.0,38,0.00,,,0.00,Wunderground v.1.12,2013-01-20 21:13:00,
2013-01-20 13:18:00,65.5,38.5,30.11,West,280,0.0,0.0,37,0.00,,,0.00,Wunderground v.1.12,2013-01-20 21:18:00,
2013-01-20 13:23:00,65.3,39.7,30.11,West,280,0.0,0.0,39,0.00,,,0.00,Wunderground v.1.12,2013-01-20 21:23:00,
2013-01-20 13:28:00,65.3,40.3,30.11,West,280,0.0,0.0,40,0.00,,,0.00,Wunderground v.1.12,2013-01-20 21:28:00,
2013-01-20 13:34:00,65.5,40.5,30.11,West,280,0.0,0.0,40,0.00,,,0.00,Wunderground v.1.12,2013-01-20 21:34:00,
2013-01-20 13:39:00,66.0,39.7,30.11,West,280,0.0,0.0,38,0.00,,,0.00,Wunderground v.1.12,2013-01-20 21:39:00,
2013-01-20 13:44:00,66.3,39.9,30.11,West,280,0.0,0.0,38,0.00,,,0.00,Wunderground v.1.12,2013-01-20 21:44:00,
2013-01-20 13:49:00,65.6,39.3,30.10,West,280,0.0,1.0,38,0.00,,,0.00,Wunderground v.1.12,2013-01-20 21:49:00,
2013-01-20 13:54:00,65.2,38.3,30.10,West,280,0.0,0.0,37,0.00,,,0.00,Wunderground v.1.12,2013-01-20 21:54:00,
2013-01-20 13:59:00,64.7,39.2,30.10,West,280,0.0,0.0,39,0.00,,,0.00,Wunderground v.1.12,2013-01-20 21:59:00,
2013-01-20 14:04:00,64.5,39.0,30.10,West,280,0.0,0.0,39,0.00,,,0.00,Wunderground v.1.12,2013-01-20 22:04:00,
2013-01-20 14:09:00,64.3,37.5,30.10,West,280,0.0,0.0,37,0.00,,,0.00,Wunderground v.1.12,2013-01-20 22:09:00,
2013-01-20 14:15:00,64.3,36.8,30.09,West,280,0.0,0.0,36,0.00,,,0.00,Wunderground v.1.12,2013-01-20 22:15:00,
2013-01-20 14:20:00,64.3,35.3,30.09,West,280,0.0,0.0,34,0.00,,,0.00,Wunderground v.1.12,2013-01-20 22:20:00,
2013-01-20 14:25:00,64.8,34.2,30.09,West,280,0.0,0.0,32,0.00,,,0.00,Wunderground v.1.12,2013-01-20 22:25:00,
2013-01-20 14:30:00,65.2,33.8,30.09,West,280,0.0,0.0,31,0.00,,,0.00,Wunderground v.1.12,2013-01-20 22:30:00,
2013-01-20 14:35:00,65.6,33.3,30.09,West,280,0.0,0.0,30,0.00,,,0.00,Wunderground v.1.12,2013-01-20 22:35:00,
2013-01-20 14:40:00,65.8,35.1,30.09,West,279,0.0,0.0,32,0.00,,,0.00,Wunderground v.1.12,2013-01-20 22:40:00,
2013-01-20 14:45:00,66.1,38.4,30.09,West,279,0.0,0.0,36,0.00,,,0.00,Wunderground v.1.12,2013-01-20 22:45:00,
2013-01-20 14:50:00,66.1,39.1,30.09,West,261,1.0,3.0,37,0.00,,,0.00,Wunderground v.1.12,2013-01-20 22:50:00,
2013-01-20 14:55:00,66.1,38.4,30.09,WSW,250,0.0,1.0,36,0.00,,,0.00,Wunderground v.1.12,2013-01-20 22:55:00,
2013-01-20 15:00:00,65.8,38.1,30.09,WSW,250,0.0,0.0,36,0.00,,,0.00,Wunderground v.1.12,2013-01-20 23:00:00,
2013-01-20 15:05:00,65.5,37.1,30.09,SW,227,0.0,0.0,35,0.00,,,0.00,Wunderground v.1.12,2013-01-20 23:05:00,
2013-01-20 15:10:00,65.2,36.8,30.09,SW,221,0.0,0.0,35,0.00,,,0.00,Wunderground v.1.12,2013-01-20 23:10:00,
2013-01-20 15:15:00,65.0,35.2,30.10,SSW,208,0.0,1.0,33,0.00,,,0.00,Wunderground v.1.12,2013-01-20 23:15:00,
2013-01-20 15:21:00,65.0,34.4,30.10,SSW,204,0.0,0.0,32,0.00,,,0.00,Wunderground v.1.12,2013-01-20 23:21:00,
2013-01-20 15:26:00,64.8,33.4,30.10,South,185,0.0,0.0,31,0.00,,,0.00,Wunderground v.1.12,2013-01-20 23:26:00,
2013-01-20 15:31:00,64.5,33.2,30.11,South,184,0.0,0.0,31,0.00,,,0.00,Wunderground v.1.12,2013-01-20 23:31:00,
2013-01-20 15:36:00,64.3,33.8,30.11,South,173,1.0,4.0,32,0.00,,,0.00,Wunderground v.1.12,2013-01-20 23:36:00,
2013-01-20 15:41:00,64.2,33.7,30.11,South,189,0.0,1.0,32,0.00,,,0.00,Wunderground v.1.12,2013-01-20 23:41:00,
2013-01-20 15:46:00,64.2,36.0,30.11,South,191,0.0,1.0,35,0.00,,,0.00,Wunderground v.1.12,2013-01-20 23:46:00,
2013-01-20 15:51:00,63.9,37.1,30.11,South,174,0.0,2.0,37,0.00,,,0.00,Wunderground v.1.12,2013-01-20 23:51:00,
2013-01-20 15:57:00,63.5,36.7,30.11,SSE,155,2.0,5.0,37,0.00,,,0.00,Wunderground v.1.12,2013-01-20 23:57:00,
2013-01-20 16:02:00,62.9,36.9,30.11,SSE,161,0.0,3.0,38,0.00,,,0.00,Wunderground v.1.12,2013-01-21 00:02:00,
2013-01-20 16:07:00,62.6,37.9,30.11,SSE,149,2.0,4.0,40,0.00,,,0.00,Wunderground v.1.12,2013-01-21 00:07:00,
2013-01-20 16:12:00,62.3,38.3,30.11,SSE,150,3.0,4.0,41,0.00,,,0.00,Wunderground v.1.12,2013-01-21 00:12:00,
2013-01-20 16:18:00,61.8,38.4,30.12,SSE,154,0.0,1.0,42,0.00,,,0.00,Wunderground v.1.12,2013-01-21 00:18:00,
2013-01-20 16:23:00,61.5,38.2,30.12,SSE,155,0.0,0.0,42,0.00,,,0.00,Wunderground v.1.12,2013-01-21 00:23:00,
2013-01-20 16:28:00,61.5,37.6,30.12,SSE,161,0.0,5.0,41,0.00,,,0.00,Wunderground v.1.12,2013-01-21 00:28:00,
2013-01-20 16:33:00,61.3,37.4,30.12,SSE,163,0.0,0.0,41,0.00,,,0.00,Wunderground v.1.12,2013-01-21 00:33:00,
2013-01-20 16:38:00,61.2,37.9,30.12,South,169,0.0,3.0,42,0.00,,,0.00,Wunderground v.1.12,2013-01-21 00:38:00,
2013-01-20 16:43:00,61.0,38.9,30.12,South,170,0.0,0.0,44,0.00,,,0.00,Wunderground v.1.12,2013-01-21 00:43:00,
2013-01-20 16:48:00,60.9,38.8,30.12,South,176,0.0,0.0,44,0.00,,,0.00,Wunderground v.1.12,2013-01-21 00:48:00,
2013-01-20 16:53:00,60.7,39.2,30.12,South,178,0.0,2.0,45,0.00,,,0.00,Wunderground v.1.12,2013-01-21 00:53:00,
2013-01-20 16:58:00,60.5,39.6,30.12,South,178,0.0,1.0,46,0.00,,,0.00,Wunderground v.1.12,2013-01-21 00:58:00,
2013-01-20 17:03:00,60.2,39.9,30.13,South,178,0.0,1.0,47,0.00,,,0.00,Wunderground v.1.12,2013-01-21 01:03:00,
2013-01-20 17:08:00,59.8,40.1,30.13,South,178,0.0,0.0,48,0.00,,,0.00,Wunderground v.1.12,2013-01-21 01:08:00,
2013-01-20 17:13:00,59.3,39.6,30.13,South,178,0.0,0.0,48,0.00,,,0.00,Wunderground v.1.12,2013-01-21 01:13:00,
2013-01-20 17:18:00,58.9,39.8,30.12,South,179,0.0,0.0,49,0.00,,,0.00,Wunderground v.1.12,2013-01-21 01:18:00,
2013-01-20 17:23:00,58.6,39.5,30.12,South,180,1.0,1.0,49,0.00,,,0.00,Wunderground v.1.12,2013-01-21 01:23:00,
2013-01-20 17:28:00,58.1,39.5,30.12,South,181,0.0,0.0,50,0.00,,,0.00,Wunderground v.1.12,2013-01-21 01:28:00,
2013-01-20 17:33:00,57.6,39.1,30.12,South,181,0.0,0.0,50,0.00,,,0.00,Wunderground v.1.12,2013-01-21 01:33:00,
2013-01-20 17:38:00,57.2,39.2,30.12,South,181,0.0,0.0,51,0.00,,,0.00,Wunderground v.1.12,2013-01-21 01:38:00,
2013-01-20 17:43:00,56.7,39.3,30.12,South,181,0.0,0.0,52,0.00,,,0.00,Wunderground v.1.12,2013-01-21 01:43:00,
2013-01-20 17:48:00,56.5,39.1,30.12,South,181,0.0,0.0,52,0.00,,,0.00,Wunderground v.1.12,2013-01-21 01:48:00,
2013-01-20 17:54:00,56.5,39.1,30.12,South,181,0.0,0.0,52,0.00,,,0.00,Wunderground v.1.12,2013-01-21 01:54:00,
2013-01-20 17:59:00,56.3,38.9,30.12,South,181,0.0,0.0,52,0.00,,,0.00,Wunderground v.1.12,2013-01-21 01:59:00,
2013-01-20 18:04:00,56.2,39.3,30.12,South,181,0.0,0.0,53,0.00,,,0.00,Wunderground v.1.12,2013-01-21 02:04:00,
2013-01-20 18:09:00,55.7,39.3,30.12,South,181,0.0,0.0,54,0.00,,,0.00,Wunderground v.1.12,2013-01-21 02:09:00,
2013-01-20 18:14:00,55.6,39.2,30.12,South,181,0.0,0.0,54,0.00,,,0.00,Wunderground v.1.12,2013-01-21 02:14:00,
2013-01-20 18:19:00,55.3,38.9,30.13,South,181,0.0,0.0,54,0.00,,,0.00,Wunderground v.1.12,2013-01-21 02:19:00,
2013-01-20 18:24:00,54.8,38.9,30.13,South,181,0.0,0.0,55,0.00,,,0.00,Wunderground v.1.12,2013-01-21 02:24:00,
2013-01-20 18:29:00,54.1,39.6,30.13,South,181,0.0,0.0,58,0.00,,,0.00,Wunderground v.1.12,2013-01-21 02:29:00,
2013-01-20 18:34:00,53.5,39.5,30.13,South,181,0.0,0.0,59,0.00,,,0.00,Wunderground v.1.12,2013-01-21 02:34:00,
2013-01-20 18:39:00,52.9,39.8,30.13,South,181,0.0,0.0,61,0.00,,,0.00,Wunderground v.1.12,2013-01-21 02:39:00,
2013-01-20 18:44:00,52.3,39.7,30.13,South,181,0.0,0.0,62,0.00,,,0.00,Wunderground v.1.12,2013-01-21 02:44:00,
2013-01-20 18:49:00,51.7,39.5,30.14,South,181,0.0,0.0,63,0.00,,,0.00,Wunderground v.1.12,2013-01-21 02:49:00,
2013-01-20 18:55:00,51.3,39.5,30.14,South,181,0.0,0.0,64,0.00,,,0.00,Wunderground v.1.12,2013-01-21 02:55:00,
2013-01-20 19:00:00,50.8,39.1,30.15,South,181,0.0,0.0,64,0.00,,,0.00,Wunderground v.1.12,2013-01-21 03:00:00,
2013-01-20 19:05:00,50.7,39.4,30.15,South,181,0.0,0.0,65,0.00,,,0.00,Wunderground v.1.12,2013-01-21 03:05:00,
2013-01-20 19:10:00,50.5,39.2,30.15,South,181,0.0,0.0,65,0.00,,,0.00,Wunderground v.1.12,2013-01-21 03:10:00,
2013-01-20 19:15:00,50.2,38.9,30.15,South,181,0.0,0.0,65,0.00,,,0.00,Wunderground v.1.12,2013-01-21 03:15:00,
2013-01-20 19:21:00,49.6,38.7,30.15,South,181,0.0,0.0,66,0.00,,,0.00,Wunderground v.1.12,2013-01-21 03:21:00,
2013-01-20 19:26:00,49.2,38.7,30.15,South,181,0.0,0.0,67,0.00,,,0.00,Wunderground v.1.12,2013-01-21 03:26:00,
2013-01-20 19:31:00,48.8,38.3,30.15,South,181,0.0,0.0,67,0.00,,,0.00,Wunderground v.1.12,2013-01-21 03:31:00,
2013-01-20 19:36:00,48.3,38.2,30.15,South,181,0.0,0.0,68,0.00,,,0.00,Wunderground v.1.12,2013-01-21 03:36:00,
2013-01-20 19:41:00,47.9,38.2,30.15,South,181,0.0,0.0,69,0.00,,,0.00,Wunderground v.1.12,2013-01-21 03:41:00,
2013-01-20 19:46:00,47.4,38.1,30.15,South,181,0.0,0.0,70,0.00,,,0.00,Wunderground v.1.12,2013-01-21 03:46:00,
2013-01-20 19:51:00,47.3,38.7,30.15,South,181,0.0,0.0,72,0.00,,,0.00,Wunderground v.1.12,2013-01-21 03:51:00,
2013-01-20 19:56:00,47.1,38.5,30.15,South,181,0.0,0.0,72,0.00,,,0.00,Wunderground v.1.12,2013-01-21 03:56:00,
2013-01-20 20:01:00,47.0,38.4,30.16,South,181,0.0,0.0,72,0.00,,,0.00,Wunderground v.1.12,2013-01-21 04:01:00,
2013-01-20 20:06:00,46.7,38.1,30.16,SSW,205,0.0,0.0,72,0.00,,,0.00,Wunderground v.1.12,2013-01-21 04:06:00,
2013-01-20 20:11:00,46.4,38.2,30.16,WNW,292,0.0,4.0,73,0.00,,,0.00,Wunderground v.1.12,2013-01-21 04:11:00,
2013-01-20 20:17:00,46.1,37.9,30.16,WNW,293,0.0,0.0,73,0.00,,,0.00,Wunderground v.1.12,2013-01-21 04:17:00,
2013-01-20 20:22:00,45.7,37.9,30.16,WNW,293,0.0,0.0,74,0.00,,,0.00,Wunderground v.1.12,2013-01-21 04:22:00,
2013-01-20 20:28:00,45.4,37.9,30.16,WNW,293,0.0,0.0,75,0.00,,,0.00,Wunderground v.1.12,2013-01-21 04:28:00,
2013-01-20 20:33:00,44.9,37.5,30.16,WNW,293,0.0,0.0,75,0.00,,,0.00,Wunderground v.1.12,2013-01-21 04:33:00,
2013-01-20 20:38:00,44.9,37.5,30.16,WNW,293,0.0,0.0,75,0.00,,,0.00,Wunderground v.1.12,2013-01-21 04:38:00,
2013-01-20 20:43:00,44.8,37.4,30.16,WNW,293,0.0,0.0,75,0.00,,,0.00,Wunderground v.1.12,2013-01-21 04:43:00,
2013-01-20 20:48:00,44.6,37.2,30.16,WNW,293,0.0,0.0,75,0.00,,,0.00,Wunderground v.1.12,2013-01-21 04:48:00,
2013-01-20 20:53:00,44.5,37.1,30.16,WNW,293,0.0,0.0,75,0.00,,,0.00,Wunderground v.1.12,2013-01-21 04:53:00,
2013-01-20 20:58:00,44.2,36.8,30.16,WNW,293,0.0,0.0,75,0.00,,,0.00,Wunderground v.1.12,2013-01-21 04:58:00,
2013-01-20 21:02:00,43.9,36.5,30.16,WNW,293,0.0,0.0,75,0.00,,,0.00,Wunderground v.1.12,2013-01-21 05:02:00,
2013-01-20 21:03:00,43.9,36.8,30.16,WNW,293,0.0,0.0,76,0.00,,,0.00,Wunderground v.1.12,2013-01-21 05:03:00,
2013-01-20 21:08:00,43.8,36.7,30.16,WNW,293,0.0,0.0,76,0.00,,,0.00,Wunderground v.1.12,2013-01-21 05:08:00,
2013-01-20 21:13:00,43.6,36.9,30.16,WNW,293,0.0,0.0,77,0.00,,,0.00,Wunderground v.1.12,2013-01-21 05:13:00,
2013-01-20 21:18:00,43.5,36.8,30.16,WNW,293,0.0,0.0,77,0.00,,,0.00,Wunderground v.1.12,2013-01-21 05:18:00,
2013-01-20 21:24:00,43.5,37.1,30.16,WNW,293,0.0,0.0,78,0.00,,,0.00,Wunderground v.1.12,2013-01-21 05:24:00,
2013-01-20 21:29:00,43.3,36.9,30.16,WNW,293,0.0,0.0,78,0.00,,,0.00,Wunderground v.1.12,2013-01-21 05:29:00,
2013-01-20 21:34:00,43.3,36.9,30.16,WNW,293,0.0,0.0,78,0.00,,,0.00,Wunderground v.1.12,2013-01-21 05:34:00,
2013-01-20 21:39:00,43.2,36.8,30.16,WNW,293,0.0,0.0,78,0.00,,,0.00,Wunderground v.1.12,2013-01-21 05:39:00,
2013-01-20 21:44:00,42.9,36.5,30.16,WNW,293,0.0,0.0,78,0.00,,,0.00,Wunderground v.1.12,2013-01-21 05:44:00,
2013-01-20 21:50:00,42.5,36.1,30.16,NNE,25,0.0,0.0,78,0.00,,,0.00,Wunderground v.1.12,2013-01-21 05:50:00,
2013-01-20 21:55:00,42.2,35.8,30.16,NNE,25,0.0,0.0,78,0.00,,,0.00,Wunderground v.1.12,2013-01-21 05:55:00,
2013-01-20 22:00:00,41.8,35.8,30.17,NNE,25,0.0,0.0,79,0.00,,,0.00,Wunderground v.1.12,2013-01-21 06:00:00,
2013-01-20 22:05:00,41.5,35.5,30.17,NNE,25,0.0,0.0,79,0.00,,,0.00,Wunderground v.1.12,2013-01-21 06:05:00,
2013-01-20 22:10:00,40.9,35.5,30.17,NNE,25,0.0,0.0,81,0.00,,,0.00,Wunderground v.1.12,2013-01-21 06:10:00,
2013-01-20 22:15:00,40.6,35.2,30.17,NNE,25,0.0,0.0,81,0.00,,,0.00,Wunderground v.1.12,2013-01-21 06:15:00,
2013-01-20 22:21:00,40.5,35.4,30.17,NNE,25,0.0,0.0,82,0.00,,,0.00,Wunderground v.1.12,2013-01-21 06:21:00,
2013-01-20 22:26:00,40.5,35.4,30.17,NNE,25,0.0,0.0,82,0.00,,,0.00,Wunderground v.1.12,2013-01-21 06:26:00,
2013-01-20 22:31:00,40.5,35.7,30.16,NNE,25,0.0,0.0,83,0.00,,,0.00,Wunderground v.1.12,2013-01-21 06:31:00,
2013-01-20 22:36:00,40.6,35.8,30.16,NNE,25,0.0,0.0,83,0.00,,,0.00,Wunderground v.1.12,2013-01-21 06:36:00,
2013-01-20 22:41:00,40.5,35.7,30.16,NNE,25,0.0,0.0,83,0.00,,,0.00,Wunderground v.1.12,2013-01-21 06:41:00,
2013-01-20 22:46:00,40.5,35.7,30.17,NNE,25,0.0,0.0,83,0.00,,,0.00,Wunderground v.1.12,2013-01-21 06:46:00,
2013-01-20 22:51:00,40.5,35.4,30.17,NNE,25,0.0,0.0,82,0.00,,,0.00,Wunderground v.1.12,2013-01-21 06:51:00,
2013-01-20 22:56:00,40.3,35.2,30.17,NNE,25,0.0,0.0,82,0.00,,,0.00,Wunderground v.1.12,2013-01-21 06:56:00,
2013-01-20 23:02:00,40.2,35.1,30.16,NNE,25,0.0,0.0,82,0.00,,,0.00,Wunderground v.1.12,2013-01-21 07:02:00,
2013-01-20 23:07:00,40.1,35.0,30.16,NNE,25,0.0,0.0,82,0.00,,,0.00,Wunderground v.1.12,2013-01-21 07:07:00,
2013-01-20 23:12:00,39.9,35.2,30.16,NNE,25,0.0,0.0,83,0.00,,,0.00,Wunderground v.1.12,2013-01-21 07:12:00,
2013-01-20 23:17:00,39.8,34.8,30.16,NNE,25,0.0,0.0,82,0.00,,,0.00,Wunderground v.1.12,2013-01-21 07:17:00,
2013-01-20 23:23:00,39.6,34.6,30.16,NNE,25,0.0,0.0,82,0.00,,,0.00,Wunderground v.1.12,2013-01-21 07:23:00,
2013-01-20 23:28:00,39.5,34.5,30.16,NNE,25,0.0,0.0,82,0.00,,,0.00,Wunderground v.1.12,2013-01-21 07:28:00,
2013-01-20 23:33:00,39.2,34.5,30.16,NNE,25,0.0,0.0,83,0.00,,,0.00,Wunderground v.1.12,2013-01-21 07:33:00,
2013-01-20 23:38:00,39.1,34.4,30.16,NNE,25,0.0,0.0,83,0.00,,,0.00,Wunderground v.1.12,2013-01-21 07:38:00,
2013-01-20 23:43:00,38.8,34.4,30.16,NNE,25,0.0,0.0,84,0.00,,,0.00,Wunderground v.1.12,2013-01-21 07:43:00,
2013-01-20 23:48:00,38.5,34.1,30.16,NNE,25,0.0,0.0,84,0.00,,,0.00,Wunderground v.1.12,2013-01-21 07:48:00,
2013-01-20 23:53:00,38.2,33.8,30.16,NNE,25,0.0,2.0,84,0.00,,,0.00,Wunderground v.1.12,2013-01-21 07:53:00,
2013-01-20 23:58:00,37.9,33.5,30.16,NNE,25,0.0,2.0,84,0.00,,,0.00,Wunderground v.1.12,2013-01-21 07:58:00,